Погода в Тибе

Япония     35°36′14″N   140°10′35″E
темп.,
°C
ветер,
м/с
пор.,
м/с
влажн.,
%
обл.,
%
осадки,
мм/ч
давл.,
гПа
погр.,
м
26 января, вт
вт2600:00+7ссв23550 0.0 102894
03:00+7ссв22560 0.0 102662
06:00+6с22640 0.0 102746
09:00+8с236123 0.0 1027175
12:00+13в354579 0.0 1025938
15:00+13юв355289 0.0 10221345
18:00+12ю1567100 0.3 1022306
21:00+11ю158298 0.6 1021167
27 января, ср
ср2700:00+11ю31284100 0.1 1017590
03:00+12ю41284100 0.4 1014860
06:00+13ююз41287100 0.9 1013838
09:00+12з1696100 5.9 1012374
12:00+9ссз4887100 3.2 1010260
15:00+11ссв41087100 14.3 1010603
18:00+11всв4968100 0.0 1014641
21:00+10св6115099 0.0 1017735
28 января, чт
чт2800:00+9св5105185 0.0 10181038
03:00+8ссв595893 0.0 1017954
06:00+7св596091 0.0 1017913
09:00+8св595684 0.0 10161085
12:00+8ссв5960100 0.1 1013909
15:00+7ссв5968100 0.5 1010754
18:00+5ссз51082100 4.0 1008397
21:00+6ссз2487100 8.4 1006172
29 января, пт
пт2900:00+6зсз118899 1.8 1002119
03:00+6юз289375 1.8 998406
06:00+8юз9175946 0.7 9961458
09:00+6сз693525 0.8 9991285
12:00+7з4731100 0.1 10001711
15:00+7зюз5102465 0.1 10013080
18:00+5зсз8122371 0.0 10052735
21:00+5зсз5122479 0.0 10083088
30 января, сб
сб3000:00+3зсз716230 0.0 10102572
03:00+3сз614230 0.0 10112131
06:00+2сз59260 0.0 10141629
09:00+3сз613230 0.0 10181843
12:00+5сз816160 0.0 10182079
15:00+7сз713150 0.0 10202041
18:00+5ссз37200 0.0 10231193
21:00+4с25240 0.0 1025338